Waarnemingen

Advertentie
Mijn weer
Dunkerque, Frankrijk (7010): temperatuur & dauwpunt: 15.03.2019 13:00:00 - 21.03.2019 13:00:00 (CET)Dunkerque, Frankrijk (7010): windsnelheid & windstoten: 15.03.2019 13:00:00 - 21.03.2019 13:00:00 (CET)Dunkerque, Frankrijk (7010): windrichting: 15.03.2019 13:00:00 - 21.03.2019 13:00:00 (CET)Dunkerque, Frankrijk (7010): luchtdruk: 15.03.2019 13:00:00 - 21.03.2019 13:00:00 (CET)Dunkerque, Frankrijk (7010): zicht: 15.03.2019 13:00:00 - 21.03.2019 13:00:00 (CET)Dunkerque, Frankrijk (7010): neerslag: 15.03.2019 13:00:00 - 21.03.2019 13:00:00 (CET)
Datum & Tijd tt [°C] td [°C] ff [km/u] ff [kn] fx [km/u] fx [kn] dd ppp [hPa] vv [km] rr [mm]
21.03.2019 13:00:00 10,2 7,6 13 7 23 12 ZW 1034,8 10 0,0
21.03.2019 12:00:00 9,8 7,6 13 7 26 14 ZZW 1035,2 - 0,0
21.03.2019 11:00:00 9,4 7,7 12 7 22 12 W 1035,2 - 0,0
21.03.2019 10:00:00 9,3 7,9 8 5 27 14 WZW 1035,0 - 0,0
21.03.2019 09:00:00 9,2 8,0 13 7 24 13 ZZW 1034,8 - 0,0
21.03.2019 08:00:00 9,1 7,9 15 8 24 13 ZZW 1034,4 - 0,0
21.03.2019 07:00:00 9,0 7,4 14 7 36 19 ZZW 1034,2 - 0,0
21.03.2019 06:00:00 9,0 7,6 13 7 23 12 ZZW 1034,2 - 0,0
21.03.2019 05:00:00 9,0 7,6 8 5 25 14 WZW 1034,0 - 0,0
21.03.2019 04:00:00 9,2 7,5 13 7 24 13 ZZW 1034,0 - 0,0
21.03.2019 03:00:00 9,2 7,6 13 7 25 13 ZZW 1034,2 - 0,0
21.03.2019 02:00:00 9,3 7,4 13 7 21 12 ZZW 1034,4 - 0,0
21.03.2019 01:00:00 9,2 7,0 14 8 20 11 ZZW 1034,7 10 0,0
21.03.2019 00:00:00 9,8 7,6 4 2 15 8 WZW 1034,8 - 0,0
20.03.2019 23:00:00 9,3 6,9 9 5 20 11 ZW 1034,8 - 0,0
20.03.2019 22:00:00 9,9 7,5 13 7 23 12 ZZW 1034,9 20 0,0
20.03.2019 21:00:00 10,2 7,6 15 8 23 13 ZZW 1034,5 - 0,0
20.03.2019 20:00:00 10,5 7,9 14 7 20 11 ZZW 1034,6 - 0,0
20.03.2019 19:00:00 10,7 7,9 14 7 23 12 ZW 1034,2 - 0,0
20.03.2019 18:00:00 11,2 8,1 13 7 29 15 ZZW 1033,7 - 0,0
20.03.2019 17:00:00 11,9 8,2 17 9 32 17 ZW 1033,5 - 0,0
20.03.2019 16:00:00 11,8 8,3 13 7 26 14 WZW 1033,6 - 0,0
20.03.2019 15:00:00 11,8 8,1 16 9 29 16 ZW 1033,8 - 0,0
20.03.2019 14:00:00 11,2 8,6 16 9 29 16 ZZW 1033,9 - 0,0
20.03.2019 13:00:00 10,7 9,0 15 8 29 16 W 1034,4 6 0,0
20.03.2019 12:00:00 10,6 8,5 17 9 31 17 W 1034,4 - 0,0
20.03.2019 11:00:00 10,8 8,4 18 10 31 17 W 1033,6 - 0,0
20.03.2019 10:00:00 10,6 8,5 16 9 27 15 ZW 1033,1 10 0,0
20.03.2019 09:00:00 9,6 8,0 15 8 22 12 ZZW 1033,0 - 0,0
20.03.2019 08:00:00 9,2 8,1 12 6 24 13 ZW 1032,8 - 0,0
20.03.2019 07:00:00 8,1 7,2 14 7 21 11 ZZW 1032,2 - 0,0
20.03.2019 06:00:00 7,8 6,9 12 6 20 11 ZZW 1031,5 - 0,0
20.03.2019 05:00:00 7,9 6,8 13 7 21 11 ZZW 1031,4 - 0,0
20.03.2019 04:00:00 8,0 6,9 12 7 24 13 ZZW 1031,3 12 0,0
20.03.2019 03:00:00 8,5 7,3 15 8 23 12 ZZW 1031,5 - 0,0
20.03.2019 02:00:00 8,2 7,0 16 8 23 12 ZZW 1031,7 - 0,0
20.03.2019 01:00:00 7,9 7,0 12 6 22 12 ZZW 1031,4 12 0,0
20.03.2019 00:00:00 7,8 6,6 16 8 22 12 ZZW 1031,3 - 0,0
19.03.2019 23:00:00 8,3 6,8 14 7 23 12 ZZW 1030,7 - 0,0
19.03.2019 22:00:00 9,0 7,0 15 8 27 14 ZZW 1030,7 10 0,0
19.03.2019 21:00:00 10,1 6,8 14 8 29 16 ZW 1030,6 - 0,0
19.03.2019 20:00:00 9,6 6,3 16 8 28 15 ZZW 1030,0 - 0,0
19.03.2019 19:00:00 10,6 5,8 20 11 34 19 ZW 1029,3 - 0,0
19.03.2019 18:00:00 11,5 6,2 17 9 30 16 W 1028,8 - 0,0
19.03.2019 17:00:00 10,8 7,1 16 9 24 13 WNW 1028,6 - 0,0
19.03.2019 16:00:00 11,1 6,8 16 9 24 13 WNW 1028,6 - 0,0
19.03.2019 15:00:00 10,5 7,2 16 9 24 13 W 1028,6 - 0,0
19.03.2019 14:00:00 10,7 7,6 17 9 26 14 W 1028,9 - 0,0
19.03.2019 13:00:00 9,5 6,4 18 10 22 12 WNW 1028,9 8 0,0
19.03.2019 12:00:00 10,1 6,2 16 8 23 12 W 1028,7 - 0,0
19.03.2019 11:00:00 10,8 6,3 13 7 23 12 ZZW 1028,4 - 0,0
19.03.2019 10:00:00 8,4 6,4 15 8 21 12 ZZW 1028,0 8 0,0
19.03.2019 09:00:00 5,9 5,2 9 5 16 9 ZZW 1027,6 - 0,0
19.03.2019 08:00:00 4,2 3,8 7 4 13 7 ZZW 1027,0 - 0,0
19.03.2019 07:00:00 3,2 2,6 6 3 15 8 ZZW 1026,6 3,0 0,2
19.03.2019 06:00:00 3,2 2,5 9 5 13 7 Z 1026,5 - 0,0
19.03.2019 05:00:00 3,6 2,7 8 4 14 8 ZZW 1026,1 - 0,0
19.03.2019 04:00:00 4,1 3,1 10 5 13 7 Z 1025,8 - 0,0
19.03.2019 03:00:00 4,5 3,2 10 5 13 7 Z 1025,3 - 0,0
19.03.2019 02:00:00 4,7 3,0 10 6 13 7 Z 1025,4 - 0,0
19.03.2019 01:00:00 6,0 4,0 7 4 16 8 ZZW 1025,2 - 0,0
19.03.2019 00:00:00 6,5 3,8 9 5 13 7 ZZW 1025,0 - 0,0
18.03.2019 23:00:00 7,0 4,3 9 5 15 8 ZZW 1024,8 - 0,0
18.03.2019 22:00:00 7,3 4,3 8 4 14 8 ZW 1024,4 - 0,0
18.03.2019 21:00:00 7,9 4,5 7 4 20 11 ZW 1024,0 - 0,0
18.03.2019 20:00:00 8,2 4,8 15 8 27 15 W 1023,4 - 0,0
18.03.2019 19:00:00 8,8 4,2 19 10 28 15 W 1022,9 10 0,0
18.03.2019 18:00:00 9,3 3,5 18 10 25 13 W 1022,3 - 0,0
18.03.2019 17:00:00 9,4 4,0 14 7 24 13 WNW 1022,0 - 0,0
18.03.2019 16:00:00 9,6 4,0 15 8 26 14 W 1021,9 10 0,0
18.03.2019 15:00:00 9,1 3,5 18 10 28 15 WNW 1021,6 - 0,0
18.03.2019 14:00:00 8,9 3,7 18 10 27 15 WNW 1021,6 - 0,0
18.03.2019 13:00:00 8,3 3,7 18 10 26 14 WNW 1021,4 - 0,0
18.03.2019 12:00:00 8,0 4,0 18 10 24 13 WNW 1021,1 - 0,0
18.03.2019 11:00:00 8,2 4,2 15 8 26 14 WNW 1020,5 - 0,0
18.03.2019 10:00:00 7,6 4,2 16 9 26 14 WNW 1019,8 - 0,0
18.03.2019 09:00:00 7,4 4,5 19 10 29 16 WNW 1019,0 - 0,0
18.03.2019 08:00:00 7,2 4,2 21 11 29 16 WNW 1018,3 - 0,0
18.03.2019 07:00:00 7,0 3,6 19 10 34 18 NW 1017,6 - 0,0
18.03.2019 06:00:00 7,1 4,1 23 12 34 19 WNW 1016,9 - 0,0
18.03.2019 05:00:00 7,2 4,3 21 12 34 18 WNW 1016,1 - 0,0
18.03.2019 04:00:00 7,1 3,7 21 11 39 21 NW 1015,3 8 0,0
18.03.2019 03:00:00 7,4 3,6 29 16 45 24 NW 1014,7 - 0,0
18.03.2019 02:00:00 7,1 3,7 26 14 44 24 WNW 1014,2 - 0,0
18.03.2019 01:00:00 7,1 3,5 27 14 44 24 WNW 1013,3 - 0,0
18.03.2019 00:00:00 7,2 3,4 27 15 45 24 WNW 1012,7 - 0,0
17.03.2019 23:00:00 5,2 2,5 16 9 24 13 ZZW 1012,4 - 0,0
17.03.2019 22:00:00 4,5 2,0 14 8 34 18 ZZW 1011,8 8 0,0
17.03.2019 21:00:00 6,2 2,1 24 13 46 25 W 1011,0 - 0,0
17.03.2019 20:00:00 6,9 1,8 31 17 59 32 W 1010,2 - 0,0
17.03.2019 19:00:00 6,1 2,7 40 22 65 35 NW 1009,9 8 2,0
17.03.2019 18:00:00 8,6 2,2 28 15 56 30 W 1008,4 - 0,0
17.03.2019 17:00:00 9,1 2,6 35 19 57 31 W 1007,5 - 0,2
17.03.2019 16:00:00 8,3 1,7 25 14 55 30 W 1007,3 - 0,0
17.03.2019 15:00:00 9,6 2,7 35 19 53 29 W 1006,4 - 0,2
17.03.2019 14:00:00 9,7 1,3 33 18 55 30 W 1006,0 - 0,0
17.03.2019 13:00:00 9,1 3,1 28 15 46 25 W 1006,0 15 0,0
17.03.2019 12:00:00 8,6 3,0 28 15 43 23 W 1005,5 - 0,0
17.03.2019 11:00:00 7,7 3,5 30 16 49 26 W 1004,8 - 0,0
17.03.2019 10:00:00 7,7 3,7 28 15 48 26 W 1003,9 - 0,0
17.03.2019 09:00:00 7,1 3,0 34 19 50 27 W 1002,7 - 0,0
17.03.2019 08:00:00 7,1 3,2 33 18 54 29 W 1001,6 - 0,0
17.03.2019 07:00:00 7,6 4,0 32 17 58 32 W 1000,5 10 0,0
17.03.2019 06:00:00 8,0 4,8 28 15 55 30 W 999,6 - 0,0
17.03.2019 05:00:00 8,6 6,2 31 17 50 27 W 998,6 - 0,0
17.03.2019 04:00:00 9,0 6,8 34 19 61 33 W 998,0 - 0,0
17.03.2019 03:00:00 8,9 6,3 29 15 61 33 WZW 997,7 - 1,2
17.03.2019 02:00:00 9,2 7,3 32 17 59 32 ZW 997,2 - 0,2
17.03.2019 01:00:00 9,8 6,7 36 19 66 35 ZW 997,8 - 0,0
17.03.2019 00:00:00 10,7 5,7 34 19 83 45 ZW 998,3 - 0,0
16.03.2019 23:00:00 11,3 5,0 39 21 72 39 ZW 999,0 - 0,0
16.03.2019 22:00:00 11,4 5,5 37 20 79 43 ZW 1000,2 10 0,0
16.03.2019 21:00:00 12,2 5,4 40 22 79 43 ZW 1000,8 - 0,0
16.03.2019 20:00:00 12,4 5,8 29 16 71 38 ZW 1001,7 - 0,0
16.03.2019 19:00:00 12,0 6,5 32 17 75 41 ZW 1002,3 10 0,0
16.03.2019 18:00:00 12,1 6,6 32 18 74 40 ZW 1002,8 - 0,0
16.03.2019 17:00:00 12,2 6,2 34 18 74 40 ZW 1003,6 - 0,0
16.03.2019 16:00:00 11,8 5,9 43 23 94 51 ZW 1004,4 - 0,0
16.03.2019 15:00:00 11,8 5,6 42 23 81 44 ZW 1005,1 - 0,0
16.03.2019 14:00:00 11,8 6,5 36 20 89 48 ZW 1005,9 - 0,0
16.03.2019 13:00:00 11,5 6,8 41 22 76 41 ZW 1006,5 - 0,0
16.03.2019 12:00:00 11,1 7,2 38 21 79 43 ZW 1007,2 - 0,0
16.03.2019 11:00:00 11,5 7,2 36 19 80 43 ZW 1007,5 - 0,0
16.03.2019 10:00:00 11,6 6,9 35 19 73 40 WZW 1007,9 6 0,0
16.03.2019 09:00:00 11,3 7,4 34 18 68 37 ZW 1008,4 - 0,0
16.03.2019 08:00:00 11,1 7,8 38 20 73 40 ZW 1008,8 - 0,0
16.03.2019 07:00:00 10,9 8,5 31 17 72 39 WZW 1009,1 - 0,0
16.03.2019 06:00:00 11,1 8,3 34 18 77 42 WZW 1009,0 - 0,0
16.03.2019 05:00:00 11,0 8,6 35 19 84 46 WZW 1009,2 - 0,0
16.03.2019 04:00:00 10,7 9,0 40 21 79 42 WZW 1009,5 - 0,0
16.03.2019 03:00:00 10,9 9,5 28 15 59 32 WZW 1010,5 - 0,2
16.03.2019 02:00:00 10,7 9,5 33 18 72 39 W 1011,0 - 0,2
16.03.2019 01:00:00 10,4 9,3 36 20 60 32 W 1011,5 6 0,0
16.03.2019 00:00:00 10,4 9,3 36 19 67 36 W 1011,9 - 0,0
15.03.2019 23:00:00 10,4 9,3 43 23 82 45 W 1011,4 6 0,0
15.03.2019 22:00:00 10,7 9,5 46 25 79 43 W 1011,0 - 0,0
15.03.2019 21:00:00 11,1 9,4 47 25 78 42 W 1010,3 - 0,0
15.03.2019 20:00:00 11,3 9,4 41 22 77 41 W 1009,5 - 0,0
15.03.2019 19:00:00 11,4 9,5 37 20 80 43 W 1008,7 6 0,0
15.03.2019 18:00:00 11,5 9,6 37 20 77 41 W 1007,8 - 0,0
15.03.2019 17:00:00 11,8 9,7 37 20 69 38 W 1007,4 - 0,0
15.03.2019 16:00:00 11,8 9,5 39 21 82 44 W 1007,4 6 0,0
15.03.2019 15:00:00 12,0 9,7 39 21 79 43 W 1007,2 - 0,0
15.03.2019 14:00:00 12,2 9,6 39 21 74 40 WZW 1007,5 - 0,0
15.03.2019 13:00:00 12,2 9,6 40 22 81 44 W 1007,3 - 0,0

tt = temperatuur
td = dauwpunt
ff = windsnelheid
fx = windstoten
dd = windrichting
ppp = luchtdruk
vv = zicht
rr = neerslag

Weerstations in de omgeving